KC9NPJ-13 Weather Reports


time (UTC)temp
C
wind
direction
speed
KPH
gust
KPH
rain 1hr
cm
rain 24hr
cm
rain mn
cm
humidity
%
barometer
mb
20260906114008 22 105 1.6 6.4 0.00 0.00 0.00 94 1014.9
20260906113508 22 31 3.2 9.7 0.00 0.00 0.00 94 1014.8
20260906113008 22 106 1.6 6.4 0.00 0.00 0.00 94 1014.8
20260906112508 22 93 1.6 4.8 0.00 0.00 0.00 94 1014.7
20260906112008 22 110 3.2 6.4 0.00 0.00 0.00 94 1014.6
20260906111508 22 108 3.2 8.0 0.00 0.00 0.00 94 1014.6
20260906111008 22 107 3.2 8.0 0.00 0.00 0.00 94 1014.5
20260906110508 22 85 3.2 6.4 0.00 0.00 0.00 94 1014.5
20260906110008 22 85 3.2 9.7 0.00 0.00 0.00 94 1014.5
20260906105508 22 122 4.8 12.9 0.00 0.00 0.00 94 1014.4
20260906105008 22 114 3.2 9.7 0.00 0.00 0.00 94 1014.4
20260906104508 21 118 4.8 8.0 0.00 0.00 0.00 94 1014.4
20260906104008 21 113 4.8 16.1 0.00 0.00 0.00 94 1014.4
20260906103508 21 108 4.8 14.5 0.00 0.00 0.00 94 1014.2
20260906103008 21 122 3.2 11.3 0.00 0.00 0.00 94 1014.2
20260906102508 21 84 4.8 11.3 0.00 0.00 0.00 93 1014.0
20260906102352 21 92 4.8 8.0 0.00 0.00 0.00 93 1014.1
20260906102008 21 92 4.8 8.0 0.00 0.00 0.00 93 1014.1
20260906101508 21 116 4.8 12.9 0.00 0.00 0.00 93 1014.0
20260906101429 22 113 4.8 12.9 0.00 0.00 0.00 93 1013.9
20260906101042 22 113 4.8 12.9 0.00 0.00 0.00 93 1013.9
20260906101008 22 113 4.8 12.9 0.00 0.00 0.00 93 1013.9
20260906100632 22 96 4.8 11.3 0.00 0.00 0.00 92 1013.7
20260906100508 22 100 4.8 8.0 0.00 0.00 0.00 93 1013.8
20260906100039 22 96 4.8 11.3 0.00 0.00 0.00 92 1013.7
20260906100008 22 96 4.8 11.3 0.00 0.00 0.00 92 1013.7
20260906095509 22 99 4.8 12.9 0.00 0.00 0.00 92 1013.6
20260906095219 22 110 4.8 9.7 0.00 0.00 0.00 92 1013.5
20260906095008 22 110 4.8 9.7 0.00 0.00 0.00 92 1013.5
20260906094508 22 110 4.8 8.0 0.00 0.00 0.00 92 1013.4
20260906094008 22 86 4.8 9.7 0.00 0.00 0.00 92 1013.3
20260906093509 22 62 4.8 9.7 0.00 0.00 0.00 92 1013.3
20260906093008 22 114 4.8 6.4 0.00 0.00 0.00 92 1013.2
20260906092509 22 62 3.2 6.4 0.00 0.00 0.00 91 1013.2
20260906092009 22 112 3.2 6.4 0.00 0.00 0.00 91 1013.4
20260906091509 22 100 1.6 6.4 0.00 0.00 0.00 91 1013.4
20260906091009 22 111 1.6 6.4 0.00 0.00 0.00 91 1013.4
20260906090509 22 98 3.2 6.4 0.00 0.00 0.00 91 1013.3
20260906090009 22 116 3.2 6.4 0.00 0.00 0.00 90 1013.5
20260906085509 23 41 3.2 8.0 0.00 0.00 0.00 90 1013.5
20260906085009 23 44 3.2 6.4 0.00 0.00 0.00 90 1013.3
20260906084509 23 96 1.6 8.0 0.00 0.00 0.00 90 1013.1
20260906084009 23 86 3.2 4.8 0.00 0.00 0.00 89 1013.2
20260906083509 23 106 3.2 6.4 0.00 0.00 0.00 89 1013.4
20260906083009 23 114 3.2 4.8 0.00 0.00 0.00 89 1013.3
20260906082509 23 41 3.2 8.0 0.00 0.00 0.00 88 1013.3
20260906082009 23 105 3.2 6.4 0.00 0.00 0.00 88 1013.3
20260906081509 23 104 3.2 4.8 0.00 0.00 0.00 87 1013.3
20260906081009 24 60 3.2 6.4 0.00 0.00 0.00 87 1013.3
20260906080509 24 113 4.8 9.7 0.00 0.00 0.00 87 1013.3
20260906080009 24 110 4.8 9.7 0.00 0.00 0.00 86 1013.2
20260906075509 24 101 4.8 12.9 0.00 0.00 0.00 86 1013.0
20260906075009 24 62 3.2 8.0 0.00 0.00 0.00 86 1012.9
20260906074509 24 104 4.8 8.0 0.00 0.00 0.00 86 1013.0
20260906074009 24 96 4.8 9.7 0.00 0.00 0.00 86 1013.1
20260906073509 25 55 4.8 9.7 0.00 0.00 0.00 86 1013.1
20260906073009 25 43 4.8 12.9 0.00 0.00 0.00 86 1013.0
20260906072509 25 122 3.2 6.4 0.00 0.00 0.00 85 1012.9
20260906072009 25 108 3.2 4.8 0.00 0.00 0.00 85 1013.0
20260906071509 25 111 3.2 6.4 0.00 0.00 0.00 84 1013.0
20260906071009 25 104 3.2 6.4 0.00 0.00 0.00 83 1012.9
20260906070509 25 62 3.2 8.0 0.00 0.00 0.00 83 1013.1
20260906070009 25 96 3.2 11.3 0.00 0.00 0.00 82 1013.1
20260906065509 25 108 4.8 12.9 0.00 0.00 0.00 82 1013.1
20260906065009 25 110 4.8 12.9 0.00 0.00 0.00 82 1013.1
20260906064509 25 99 3.2 9.7 0.00 0.00 0.00 82 1013.2
20260906064009 25 117 3.2 6.4 0.00 0.00 0.00 82 1013.2
20260906063509 26 37 3.2 4.8 0.00 0.00 0.00 82 1013.4
20260906063009 26 109 3.2 6.4 0.00 0.00 0.00 81 1013.3
20260906062509 26 102 3.2 6.4 0.00 0.00 0.00 81 1013.2
20260906062009 26 98 3.2 4.8 0.00 0.00 0.00 80 1013.4
20260906061509 26 59 3.2 6.4 0.00 0.00 0.00 80 1013.6
20260906061009 26 43 3.2 6.4 0.00 0.00 0.00 80 1013.6
20260906060509 26 91 3.2 6.4 0.00 0.00 0.00 80 1013.7
20260906060009 26 100 3.2 9.7 0.00 0.00 0.00 80 1013.8
20260906055509 26 88 3.2 6.4 0.00 0.00 0.00 80 1013.9
20260906055009 26 114 3.2 6.4 0.00 0.00 0.00 80 1013.7
20260906054509 26 41 3.2 8.0 0.00 0.00 0.00 81 1013.7
20260906054009 26 50 3.2 6.4 0.00 0.00 0.00 81 1013.7
20260906053509 26 109 3.2 6.4 0.00 0.00 0.00 81 1013.7
20260906053009 27 115 3.2 6.4 0.00 0.00 0.00 82 1013.7
20260906052509 27 110 3.2 8.0 0.00 0.00 0.00 82 1013.7
20260906052009 27 87 3.2 8.0 0.00 0.00 0.00 82 1013.6
20260906051509 27 85 4.8 12.9 0.00 0.00 0.00 82 1013.5
20260906051009 27 115 4.8 9.7 0.00 0.00 0.00 82 1013.5
20260906050509 27 102 4.8 11.3 0.00 0.00 0.00 82 1013.4
20260906050009 27 108 4.8 9.7 0.00 0.00 0.00 82 1013.4
20260906045509 27 100 4.8 9.7 0.00 0.00 0.00 82 1013.5
20260906045009 27 95 6.4 12.9 0.00 0.00 0.00 82 1013.4
20260906044509 27 81 4.8 12.9 0.00 0.00 0.00 82 1013.4
20260906044009 27 106 3.2 12.9 0.00 0.00 0.00 81 1013.4
20260906043509 27 48 4.8 8.0 0.00 0.00 0.00 81 1013.4
20260906043009 28 101 6.4 12.9 0.00 0.00 0.00 80 1013.4
20260906042509 28 108 6.4 17.7 0.00 0.00 0.00 80 1013.3
20260906042427 28 116 3.2 9.7 0.00 0.00 0.00 80 1013.1
20260906042009 28 116 3.2 9.7 0.00 0.00 0.00 80 1013.1
20260906041509 28 96 3.2 9.7 0.00 0.00 0.00 79 1013.1
20260906041009 28 44 1.6 6.4 0.00 0.00 0.00 79 1013.0
20260906040509 28 168 1.6 4.8 0.00 0.00 0.00 79 1013.0
20260906040009 28 48 1.6 3.2 0.00 0.00 0.00 78 1012.9
20260906035510 28 104 3.2 6.4 0.00 0.00 0.00 78 1012.8
20260906035010 28 107 1.6 6.4 0.00 0.00 0.00 77 1012.9
20260906034509 28 100 1.6 4.8 0.00 0.00 0.00 77 1012.8
20260906034010 28 114 1.6 4.8 0.00 0.00 0.00 77 1012.6
20260906033510 28 92 1.6 3.2 0.00 0.00 0.00 76 1012.6
20260906033010 28 106 1.6 4.8 0.00 0.00 0.00 76 1012.3
20260906032510 28 100 1.6 3.2 0.00 0.00 0.00 76 1012.3
20260906032010 29 119 1.6 6.4 0.00 0.00 0.00 75 1012.4
20260906031510 29 86 1.6 6.4 0.00 0.00 0.00 75 1012.4
20260906031010 29 104 1.6 4.8 0.00 0.00 0.00 74 1012.4
20260906030510 29 31 3.2 4.8 0.00 0.00 0.00 74 1012.3
20260906030010 29 87 1.6 9.7 0.00 0.00 0.00 74 1012.3
20260906025510 29 102 1.6 4.8 0.00 0.00 0.00 74 1012.2
20260906025010 29 89 1.6 3.2 0.00 0.00 0.00 73 1012.0
20260906024510 29 88 3.2 8.0 0.00 0.00 0.00 73 1012.0
20260906024010 29 104 3.2 8.0 0.00 0.00 0.00 73 1012.0
20260906023510 29 91 1.6 4.8 0.00 0.00 0.00 73 1012.1
20260906023010 29 58 1.6 4.8 0.00 0.00 0.00 73 1012.1
20260906022510 29 44 0.0 4.8 0.00 0.00 0.00 73 1012.0
20260906022010 29 54 0.0 3.2 0.00 0.00 0.00 73 1012.0
20260906021510 29 26 1.6 4.8 0.00 0.00 0.00 72 1011.9
20260906021010 29 55 0.0 4.8 0.00 0.00 0.00 72 1011.8
20260906020510 29 51 0.0 1.6 0.00 0.00 0.00 71 1011.7
20260906020010 29 58 0.0 3.2 0.00 0.00 0.00 71 1011.6
20260906015510 29 63 0.0 3.2 0.00 0.00 0.00 71 1011.8
20260906015010 29 84 0.0 1.6 0.00 0.00 0.00 71 1011.7
20260906014510 28 99 0.0 3.2 0.00 0.00 0.00 72 1011.6
20260906014010 28 88 0.0 0.0 0.00 0.00 0.00 73 1011.5
20260906013510 28 88 0.0 0.0 0.00 0.00 0.00 73 1011.4
20260906013010 28 88 0.0 1.6 0.00 0.00 0.00 73 1011.5
20260906012510 28 88 0.0 1.6 0.00 0.00 0.00 73 1011.5
20260906012010 28 88 0.0 0.0 0.00 0.00 0.00 72 1011.5
20260906011510 29 88 0.0 0.0 0.00 0.00 0.00 71 1011.5
20260906011010 29 88 0.0 1.6 0.00 0.00 0.00 71 1011.4
20260906010510 28 88 0.0 0.0 0.00 0.00 0.00 71 1011.4
20260906010010 29 88 0.0 0.0 0.00 0.00 0.00 71 1011.1
20260906005510 29 88 0.0 0.0 0.00 0.00 0.00 69 1011.2
20260906005010 30 88 0.0 0.0 0.00 0.00 0.00 69 1011.1
20260906004510 30 88 0.0 0.0 0.00 0.00 0.00 69 1011.3
20260906004010 30 88 0.0 0.0 0.00 0.00 0.00 68 1011.2
20260906003510 30 88 0.0 0.0 0.00 0.00 0.00 67 1011.1
20260906003010 31 88 0.0 0.0 0.00 0.00 0.00 65 1011.1
20260906002510 31 88 0.0 0.0 0.00 0.00 0.00 63 1011.2
20260906002010 31 88 0.0 1.6 0.00 0.00 0.00 63 1011.2
20260906001510 31 89 0.0 1.6 0.00 0.00 0.00 62 1011.2
20260906001010 32 56 0.0 1.6 0.00 0.00 0.00 61 1011.3
20260906000511 32 56 0.0 1.6 0.00 0.00 0.00 60 1011.3
20260906000010 32 56 0.0 1.6 0.00 0.00 0.00 59 1011.3
20260905235510 32 56 0.0 1.6 0.00 0.00 0.00 58 1011.3
20260905235010 32 56 0.0 1.6 0.00 0.00 0.00 58 1011.2
20260905234510 33 45 0.0 1.6 0.00 0.00 0.00 57 1011.3
20260905234010 33 84 1.6 3.2 0.00 0.00 0.00 57 1011.2
20260905233510 33 107 1.6 4.8 0.00 0.00 0.00 55 1011.1
20260905233010 33 99 3.2 4.8 0.00 0.00 0.00 55 1011.0
20260905232510 33 118 3.2 6.4 0.00 0.00 0.00 54 1010.9
20260905232010 33 100 3.2 8.0 0.00 0.00 0.00 53 1011.0
20260905231510 34 97 3.2 9.7 0.00 0.00 0.00 52 1010.9
20260905231010 34 104 3.2 4.8 0.00 0.00 0.00 51 1010.8
20260905230510 34 115 4.8 8.0 0.00 0.00 0.00 50 1010.9
20260905230010 34 117 3.2 9.7 0.00 0.00 0.00 49 1010.9
20260905225510 35 100 3.2 8.0 0.00 0.00 0.00 49 1010.8
20260905225010 35 77 4.8 9.7 0.00 0.00 0.00 49 1010.8
20260905224510 35 105 4.8 9.7 0.00 0.00 0.00 49 1010.8
20260905224010 35 112 4.8 12.9 0.00 0.00 0.00 49 1010.8
20260905223510 35 109 4.8 11.3 0.00 0.00 0.00 49 1010.8
20260905223010 35 115 4.8 9.7 0.00 0.00 0.00 48 1010.8
20260905222510 35 81 4.8 9.7 0.00 0.00 0.00 48 1010.8
20260905222011 35 38 4.8 8.0 0.00 0.00 0.00 49 1010.7
20260905221511 35 37 4.8 9.7 0.00 0.00 0.00 48 1010.8
20260905221011 35 98 4.8 8.0 0.00 0.00 0.00 48 1010.9
20260905220511 35 99 6.4 11.3 0.00 0.00 0.00 48 1010.8
20260905220011 35 125 8.0 19.3 0.00 0.00 0.00 47 1010.8
20260905215511 36 96 6.4 14.5 0.00 0.00 0.00 47 1010.8
20260905215011 36 111 4.8 14.5 0.00 0.00 0.00 46 1010.8
20260905214511 37 118 3.2 8.0 0.00 0.00 0.00 47 1010.8
20260905214011 36 127 4.8 8.0 0.00 0.00 0.00 47 1010.7
20260905213511 36 83 4.8 12.9 0.00 0.00 0.00 47 1010.7
20260905213011 36 57 6.4 12.9 0.00 0.00 0.00 48 1010.6
20260905212511 36 141 6.4 16.1 0.00 0.00 0.00 48 1010.5
20260905212011 36 120 8.0 17.7 0.00 0.00 0.00 48 1010.5
20260905211511 36 102 8.0 17.7 0.00 0.00 0.00 47 1010.6
20260905211011 37 121 8.0 20.9 0.00 0.00 0.00 44 1010.6
20260905210511 37 41 6.4 12.9 0.00 0.00 0.00 42 1010.6
20260905210011 38 127 4.8 16.1 0.00 0.00 0.00 43 1010.7
20260905205511 38 10 3.2 12.9 0.00 0.00 0.00 39 1010.6
20260905205011 37 110 1.6 6.4 0.00 0.00 0.00 39 1010.6
20260905204511 38 60 1.6 3.2 0.00 0.00 0.00 37 1010.6
20260905204011 38 12 3.2 19.3 0.00 0.00 0.00 36 1010.8
20260905203511 39 45 3.2 19.3 0.00 0.00 0.00 36 1010.8
20260905203011 39 358 3.2 12.9 0.00 0.00 0.00 38 1011.0
20260905202511 38 356 3.2 11.3 0.00 0.00 0.00 38 1011.0
20260905202011 38 38 3.2 8.0 0.00 0.00 0.00 39 1011.2
20260905201511 38 96 3.2 17.7 0.00 0.00 0.00 39 1011.2
20260905201011 38 52 1.6 8.0 0.00 0.00 0.00 40 1011.4
20260905200511 38 358 1.6 3.2 0.00 0.00 0.00 41 1011.3
20260905200011 37 88 1.6 6.4 0.00 0.00 0.00 42 1011.4
20260905195511 37 359 1.6 12.9 0.00 0.00 0.00 43 1011.4
20260905195011 37 62 3.2 8.0 0.00 0.00 0.00 41 1011.5
20260905194511 38 87 3.2 8.0 0.00 0.00 0.00 41 1011.3
20260905194011 37 8 1.6 12.9 0.00 0.00 0.00 44 1011.5
20260905193511 38 359 3.2 6.4 0.00 0.00 0.00 41 1011.4
20260905193011 37 99 3.2 9.7 0.00 0.00 0.00 40 1011.5
20260905192511 37 94 1.6 12.9 0.00 0.00 0.00 40 1011.6
20260905192011 37 60 1.6 11.3 0.00 0.00 0.00 42 1011.6
20260905191511 37 1 3.2 11.3 0.00 0.00 0.00 44 1011.6
20260905191011 36 38 3.2 12.9 0.00 0.00 0.00 43 1011.7
20260905190511 36 93 1.6 4.8 0.00 0.00 0.00 44 1011.8
20260905190011 37 44 1.6 3.2 0.00 0.00 0.00 45 1011.9
20260905185511 37 30 1.6 8.0 0.00 0.00 0.00 42 1011.9
20260905185011 37 94 1.6 3.2 0.00 0.00 0.00 42 1012.0
20260905184511 37 13 3.2 12.9 0.00 0.00 0.00 42 1012.1
20260905184011 38 15 1.6 11.3 0.00 0.00 0.00 41 1012.1
20260905183511 38 52 0.0 3.2 0.00 0.00 0.00 41 1012.1
20260905183011 38 335 3.2 4.8 0.00 0.00 0.00 44 1012.1
20260905182511 37 25 4.8 9.7 0.00 0.00 0.00 41 1012.2
20260905182011 38 154 3.2 12.9 0.00 0.00 0.00 41 1012.3
20260905181511 38 29 1.6 3.2 0.00 0.00 0.00 44 1012.3
20260905181011 38 170 3.2 17.7 0.00 0.00 0.00 44 1012.4
20260905180511 38 247 3.2 8.0 0.00 0.00 0.00 42 1012.4
20260905180011 38 219 1.6 9.7 0.00 0.00 0.00 43 1012.5
20260905175511 38 15 1.6 6.4 0.00 0.00 0.00 41 1012.5
20260905175011 38 247 1.6 8.0 0.00 0.00 0.00 43 1012.4
20260905174511 38 96 1.6 6.4 0.00 0.00 0.00 42 1012.5
20260905174011 38 310 1.6 3.2 0.00 0.00 0.00 43 1012.6
20260905173511 38 286 3.2 9.7 0.00 0.00 0.00 43 1012.6
20260905173011 37 229 1.6 11.3 0.00 0.00 0.00 47 1012.8
20260905172511 37 25 1.6 9.7 0.00 0.00 0.00 44 1012.7
20260905172011 38 98 0.0 3.2 0.00 0.00 0.00 44 1012.7
20260905171511 37 61 0.0 3.2 0.00 0.00 0.00 44 1012.8
20260905171011 37 233 0.0 3.2 0.00 0.00 0.00 43 1013.0
20260905170511 37 290 0.0 6.4 0.00 0.00 0.00 45 1012.8
20260905170011 37 318 0.0 3.2 0.00 0.00 0.00 45 1013.1
20260905165511 37 291 1.6 3.2 0.00 0.00 0.00 45 1013.1
20260905165012 37 336 1.6 8.0 0.00 0.00 0.00 47 1013.2
20260905164512 37 231 0.0 4.8 0.00 0.00 0.00 43 1013.3
20260905164012 36 327 1.6 3.2 0.00 0.00 0.00 46 1013.3
20260905163512 36 247 1.6 8.0 0.00 0.00 0.00 46 1013.4
20260905163012 36 348 0.0 3.2 0.00 0.00 0.00 49 1013.6
20260905162512 36 291 0.0 3.2 0.00 0.00 0.00 49 1013.6
20260905162012 36 104 0.0 3.2 0.00 0.00 0.00 49 1013.6
20260905161512 36 175 0.0 3.2 0.00 0.00 0.00 49 1013.6
20260905161012 35 158 0.0 3.2 0.00 0.00 0.00 51 1013.6
20260905160512 35 210 0.0 4.8 0.00 0.00 0.00 51 1013.6
20260905160012 35 245 0.0 4.8 0.00 0.00 0.00 54 1013.7
20260905155512 35 294 0.0 1.6 0.00 0.00 0.00 55 1013.8
20260905155012 35 238 0.0 6.4 0.00 0.00 0.00 54 1013.9
20260905154512 35 54 0.0 3.2 0.00 0.00 0.00 54 1014.0
20260905154012 34 98 0.0 3.2 0.00 0.00 0.00 54 1013.9
20260905153512 34 331 0.0 1.6 0.00 0.00 0.00 55 1014.0
20260905153012 34 267 0.0 3.2 0.00 0.00 0.00 55 1014.0
20260905152512 33 332 0.0 4.8 0.00 0.00 0.00 56 1014.0
20260905152012 33 18 0.0 1.6 0.00 0.00 0.00 57 1014.0
20260905151512 33 322 0.0 1.6 0.00 0.00 0.00 59 1013.9
20260905151012 33 19 0.0 1.6 0.00 0.00 0.00 58 1013.8
20260905150512 33 325 0.0 1.6 0.00 0.00 0.00 57 1013.8
20260905150012 33 316 0.0 1.6 0.00 0.00 0.00 57 1013.8
20260905145512 33 308 0.0 1.6 0.00 0.00 0.00 59 1013.7
20260905145012 32 329 0.0 1.6 0.00 0.00 0.00 59 1013.8
20260905144512 32 303 0.0 1.6 0.00 0.00 0.00 60 1014.0
20260905144012 32 318 0.0 1.6 0.00 0.00 0.00 61 1013.8
20260905143512 32 233 0.0 0.0 0.00 0.00 0.00 64 1014.0
20260905143012 31 234 0.0 1.6 0.00 0.00 0.00 63 1014.0
20260905142512 31 256 0.0 6.4 0.00 0.00 0.00 66 1014.0
20260905142106 31 250 0.0 1.6 0.00 0.00 0.00 68 1014.0
20260905142012 31 250 0.0 1.6 0.00 0.00 0.00 68 1014.0
20260905141512 30 242 0.0 1.6 0.00 0.00 0.00 71 1014.0
20260905141012 30 227 0.0 0.0 0.00 0.00 0.00 73 1013.9
20260905140512 29 227 0.0 1.6 0.00 0.00 0.00 73 1014.0
20260905140012 29 237 0.0 1.6 0.00 0.00 0.00 75 1014.2
20260905135512 28 279 0.0 1.6 0.00 0.00 0.00 76 1014.2
20260905135012 28 231 0.0 0.0 0.00 0.00 0.00 79 1014.2
20260905134512 27 231 0.0 0.0 0.00 0.00 0.00 81 1014.2
20260905134012 27 264 0.0 0.0 0.00 0.00 0.00 82 1014.1
20260905133512 26 268 0.0 0.0 0.00 0.00 0.00 84 1014.1
20260905133012 26 268 0.0 0.0 0.00 0.00 0.00 85 1014.0
20260905132512 26 268 0.0 0.0 0.00 0.00 0.00 86 1014.0
20260905132012 25 268 0.0 0.0 0.00 0.00 0.00 86 1014.0
20260905131512 25 268 0.0 0.0 0.00 0.00 0.00 87 1014.2
20260905131012 25 268 0.0 0.0 0.00 0.00 0.00 88 1014.3
20260905130512 24 268 0.0 0.0 0.00 0.00 0.00 89 1014.2
20260905130012 23 268 0.0 0.0 0.00 0.00 0.00 90 1014.3
20260905125512 23 268 0.0 0.0 0.00 0.00 0.00 92 1014.4
20260905125012 23 268 0.0 0.0 0.00 0.00 0.00 93 1014.4
20260905124512 23 268 0.0 0.0 0.00 0.00 0.00 93 1014.3
20260905124012 22 268 0.0 0.0 0.00 0.00 0.00 93 1014.1
20260905123512 22 268 0.0 0.0 0.00 0.00 0.00 93 1014.1
20260905123012 22 268 0.0 0.0 0.00 0.00 0.00 93 1014.2
20260905122512 22 268 0.0 0.0 0.00 0.00 0.00 93 1014.1
20260905122012 22 268 0.0 0.0 0.00 0.00 0.00 93 1014.0
20260905121512 22 268 0.0 0.0 0.00 0.00 0.00 93 1013.9
20260905121012 22 268 0.0 0.0 0.00 0.00 0.00 93 1014.0
20260905120512 22 268 0.0 0.0 0.00 0.00 0.00 93 1014.0
20260905120012 22 268 0.0 0.0 0.00 0.00 0.00 93 1014.0
20260905115512 22 268 0.0 0.0 0.00 0.00 0.00 93 1014.0
20260905115012 22 268 0.0 0.0 0.00 0.00 0.00 93 1014.0
20260905114512 21 268 0.0 0.0 0.00 0.00 0.00 92 1014.0